Regional Weather Roundup
Issued by NWS Upton, NY

Current Version | Previous Version | Graphics & Text | Print | Product List | Glossary Off
Versions: 1 2 3 4 5 6 7 8 9 10 11 12 13 14 15 16 17 18 19 20 21 22 23 24 25 26 27

000
ASUS41 KOKX 282305
RWROKX

REGIONAL WEATHER ROUNDUP
NATIONAL WEATHER SERVICE NEW YORK NY
700 PM EDT SAT MAY 28 2016

NOTE: "FAIR" INDICATES FEW OR NO CLOUDS BELOW 12,000 FEET WITH NO
SIGNIFICANT WEATHER AND/OR OBSTRUCTIONS TO VISIBILITY.

NYZ071-072-176-178-NJZ106-104-290000-
NEW YORK CITY METRO AREA


CITY           SKY/WX    TMP DP  RH WIND       PRES   REMARKS
CENTRAL PARK   CLOUDY    83  65  54 CALM      30.11R
LAGUARDIA APRT CLOUDY    81  69  67 SE14      30.07R
KENNEDY INTL   MOSUNNY   72  58  61 S20G26    30.09S
NEWARK/LIBERTY MOSUNNY   91  64  40 NW12      30.07R HX  92
BRNX BOT. GARD   N/A     77  68  73 E2        30.09F
TETERBORO      CLOUDY    84  64  50 NW5       30.07R
$$

NYZ177-179-078>081-290000-
LONG ISLAND NEW YORK

CITY           SKY/WX    TMP DP  RH WIND       PRES   REMARKS
FARMINGDALE    SUNNY     74  57  55 SW15      30.11S
ISLIP          PTSUNNY   74  57  55 SW15G23   30.11S
SHIRLEY        SUNNY     74  58  57 SW13G22   30.12S
RIVERHEAD        N/A     75  63  64 SW2       30.10S
WESTHAMPTON    SUNNY     71  57  61 SW14G21   30.14R
EAST HAMPTON   FAIR      72  58  62 SW10      30.11S
MONTAUK POINT    N/A     70  58  65 SW13G20   30.13R
$$

NYZ052-065-067-290000-
HUDSON VALLEY

CITY           SKY/WX    TMP DP  RH WIND       PRES   REMARKS
WHITE PLAINS   PTSUNNY   78  66  66 S5        30.09F THUNDER
NEWBURGH       MOSUNNY   82  70  65 SW7       30.09R
MONTGOMERY     CLOUDY    81  68  64 SW10      30.07S
POUGHKEEPSIE   MOSUNNY   89  65  44 SW9       30.04S HX  91
ALBANY         PTSUNNY   91  60  35 NW3       30.04S HX  90
$$

NJZ001-105-106-008-010-013-015-019>022-104-290000-
NEW JERSEY

CITY           SKY/WX    TMP DP  RH WIND       PRES   REMARKS
NEWARK/LIBERTY MOSUNNY   91  64  40 NW12      30.07R HX  92
TETERBORO      CLOUDY    84  64  50 NW5       30.07R
CALDWELL       PTSUNNY   75  69  81 SE5       30.08F
MORRISTOWN     PTSUNNY   81  66  61 N10       30.10R
SOMERVILLE     SUNNY     87  67  51 VRB5      30.07R HX  90
SUSSEX         CLOUDY    76  68  76 SW7       30.11R
ANDOVER          N/A     75  68  78 VRB3      30.12S
TRENTON        SUNNY     86  65  49 SW12      30.09R
MILLVILLE      SUNNY     79  55  43 S8        30.13R
ATLANTIC CITY  SUNNY     79  42  26 S10       30.14R
WRIGHTSTOWN    NOT AVBL
TOMS RIVER     SUNNY     82  59  44 S10       30.12R
BELMAR         SUNNY     84  65  52 S9        30.12R
$$

PAZ047>061-062-071-290000-
EASTERN PENNSYLVANIA

CITY           SKY/WX    TMP DP  RH WIND       PRES   REMARKS
PHILADELPHIA   MOSUNNY   85  65  51 S10       30.11R
ALLENTOWN      MOSUNNY   88  65  46 S9G21     30.09R HX  90
SCRANTON       CLOUDY    85  67  54 VRB5      30.10S
$$

CTZ002-004>006-009-010-012-RIZ004-006-007-MAZ004-011-015-290000-
SOUTHERN NEW ENGLAND
 IN CT

CITY           SKY/WX    TMP DP  RH WIND       PRES   REMARKS
BRADLEY INTL   PTSUNNY   87  67  51 S10       30.04R HX  90
HARTFORD       MOSUNNY   88  68  51 S7        30.06R HX  91
DANBURY        CLOUDY    82  66  58 S10G18    30.09S
WTRBRY/OXFORD  MOSUNNY   81  64  57 SW12G18   30.12S
BRIDGEPORT     SUNNY     78  63  59 SW9       30.09R
MERIDEN        SUNNY     83  66  56 S10       30.08R
NEW HAVEN      SUNNY     75  63  66 SW7       30.10R
CHESTER        FAIR      79  64  61 SW9G17    30.11R
GROTON         CLOUDY    71  65  81 SW6       30.10R
WILLIMANTIC    CLOUDY    86  67  52 S7        30.08R

 IN RI

CITY           SKY/WX    TMP DP  RH WIND       PRES   REMARKS
PROVIDENCE     CLOUDY    82  64  54 SW10      30.08R
BLOCK ISLAND   SUNNY     63  57  81 SW20G25   30.12R
WESTERLY       MOSUNNY   72  59  63 VRB5      30.11R

 IN MA

CITY           SKY/WX    TMP DP  RH WIND       PRES   REMARKS
BOSTON         PTSUNNY   85  66  53 S12       30.03R
WORCESTER      MOSUNNY   83  64  52 SW7       30.10R
WESTFIELD      MOSUNNY   85  70  60 S3        30.05R
PROVINCETOWN   MOSUNNY   68  61  78 SW13      30.07S
NANTUCKET      SUNNY     63  56  78 SW9       30.13R
$$

ANZ330-335-338-340-345-350-353-355-290000-
COASTAL MARINE OBSERVATIONS


STATION/POSITION TIME  SKY/WX   TEMP    WIND        PRES    VSBY  WAVE
                                AIR SEA DIR/SP/G                  HT/PER
                 (UTC)          (F)     (DEG/KT/KT) (MB)    (MI)  (FT/S)
NY HARB ENTRANCE 2150            64 59  200/ 19/ 21 1018.4          4/ 5
20S FIRE ISLAND  2150            64 60  210/ 17/ 19 1019.2          4/ 5
GREAT SOUTH BAY  2200            68 70  250/ 10/ 14   N/A
23 SSW MONTAUK P 2250            61 57  230/ 12/ 14 1019.8          3/ 4
15 E BARNEGAT LI 2222               59                N/A           3/ 4
HUDSON CANYON    2150            62 59              1021.1          3/ 9
KINGS POINT      2200                                 N/A
EXECUTION ROCKS  NOT AVBL
CENTRAL LI SOUND 2215            70     200/ 12/ 16   N/A           1/ 2
EASTERN LI SOUND 2200            70 54  210/  2/  4   N/A
ROBBINS REEF     2200                   160/ 13/ 15   N/A
$$


>>>>>>>>>>>>>>>>>>>>>>>>>>>> KEY <<<<<<<<<<<<<<<<<<<<<<<<<<<
>                                                          <
>     SKY/WX - SKY CONDITION/PRESENT WEATHER               <
>     TMP    - TEMPERATURE IN FAHRENHEIT                   <
>     DP     - DEWPOINT IN FAHRENHEIT                      <
>     RH     - RELATIVE HUMIDITY IN PERCENT                <
>     WIND   - DIRECTION AND SPEED IN MPH                  <
>     PRES   - MEAN SEA LEVEL PRESSURE IN INCHES OF HG     <
>     WCI    - WIND CHILL INDEX                            <
>     VSB    - VISIBILITY IN MILES                         <
>     HX     - HEAT INDEX                                  <
>     TC     - TEMPERATURE IN CELSIUS                      <
>     VRB    - VARIABLE WIND DIRECTION                     <
>                                                          <
>>>>>>>>>>>>>>>>>>>>>>>>>>>> KEY <<<<<<<<<<<<<<<<<<<<<<<<<<<






USA.gov is the U.S. government's official web portal to all federal, state and local government web resources and services.